Location: *
(29.1167°S, 130.0000°E)
Time: 04:24:51
(UTC+00:00)

Daily predictions for brighter satellites

Satellite Brightness Start Highest point End
(mag) Time Altitude Azimuth Time Altitude Azimuth Time Altitude Azimuth
ATLAS 2A CENTAUR R/B 4.2 08:23:59 10° W 08:28:54 77° N 08:55:24 10° E
Cosmos 1000 Rocket 4.5 08:55:23 10° N 09:01:31 78° E 09:07:43 10° S
Meteor 2-10 4.3 08:57:56 10° N 09:03:24 55° E 09:08:46 10° SSE
METEOR-M 4.3 08:58:19 10° S 09:03:44 82° WSW 09:09:05 10° NNW
CZ-4C R/B 3.1 08:56:56 10° NNW 09:05:14 71° ENE 09:12:46 10° SSE
COSMOS 2487 3.8 09:04:00 10° NW 09:07:20 42° WSW 09:10:42 10° S
Cosmos 1953 Rocket 4.1 09:03:55 10° SSW 09:08:27 68° W 09:12:53 10° N
Timation 2 Rocket 4.2 09:05:20 10° N 09:11:00 45° ENE 09:16:41 10° SE
Cosmos 1908 3.4 09:09:10 10° N 09:12:56 53° E 09:16:46 10° SSE
Cosmos 2016 Rocket 4.3 09:09:16 10° S 09:15:11 45° E 09:21:06 10° NNE
Cosmos 1726 2.4 09:19:45 10° N 09:23:29 73° W 09:27:18 10° S
Feng Yun 1-1 Rocket 4.3 09:18:57 10° SSE 09:24:51 83° ENE 09:30:31 10° NNW
Cosmos 1300 4.0 09:23:01 10° NE 09:25:52 20° E 09:28:32 11° SE
NOSS 3-1 (C) 3.4 09:21:46 10° SSW 09:27:34 49° ESE 09:32:44 10° NE
CZ-4 R/B 3.0 09:25:40 12° ESE 09:27:58 18° E 09:30:48 10° NE
Cosmos 1725 Rocket 4.3 09:23:33 10° S 09:29:33 46° E 09:35:30 10° NNE
Chunghua 1 4.4 09:27:48 10° WNW 09:31:30 86° NNE 09:34:13 17° ESE
Cosmos 2251 Rocket 3.5 09:27:06 10° S 09:32:28 68° ESE 09:37:43 10° NNE
APEX 4.3 09:32:04 10° S 09:35:26 28° ESE 09:39:30 10° NE
GPS 2-04 Rocket1 3.8 09:31:54 10° WSW 09:35:48 34° S 09:38:24 18° ESE
AQUARIUS 4.1 09:31:49 10° SSE 09:36:23 80° E 09:40:53 10° N
PSLV R/B 2.8 09:33:53 10° SW 09:36:39 59° SSE 09:38:22 20° ENE
Okean-O 2.6 09:36:22 10° SSE 09:40:53 82° ENE 09:45:19 10° N
Cosmos 1328 4.1 09:37:40 10° S 09:41:46 72° W 09:45:47 10° N
Cosmos 2233 Rocket 4.5 09:37:12 10° SSE 09:42:52 36° E 09:48:32 10° NE
Palapa 6 Rocket 4.5 09:38:20 10° WNW 09:43:19 44° N 09:48:57 12° ENE
SL-24 DEB 4.3 09:39:15 10° NNE 09:43:46 56° E 09:48:22 10° S
Cosmos 1802 Rocket 4.2 09:37:50 10° S 09:44:18 80° W 09:50:43 10° N
Cosmos 2360 Rocket 2.6 09:39:30 10° S 09:44:52 40° ESE 09:50:10 10° NE
Cosmos 1271 Rocket 3.0 09:43:13 10° S 09:46:50 40° E 09:50:26 10° NNE
Cosmos 2061 Rocket 4.1 09:41:53 10° S 09:48:19 83° W 09:54:36 10° N
Cosmos 1812 Rocket 3.8 09:45:35 10° NNW 09:49:54 70° W 09:54:18 10° S
SMAP 4.0 09:55:15 10° S 09:59:48 49° WSW 10:04:17 10° NNW
Yuri Rocket 4.4 09:56:15 10° W 10:00:25 39° NNW 10:05:12 12° NE
Meteor 1-11 4.5 09:55:46 10° SSW 10:01:28 73° W 10:07:10 10° N
CZ-2C R/B 3.9 09:58:48 10° N 10:03:34 77° WNW 10:08:19 10° SSW
Cosmos 1864 Rocket 4.5 09:57:39 10° S 10:03:51 86° W 10:10:00 10° N
OAO 2 Rocket 3.4 10:00:04 10° WNW 10:05:10 72° SSW 10:07:19 34° ESE
USA 229 DEB 4.0 09:58:42 10° SW 10:05:22 64° WNW 10:11:47 10° NNE
USA 229 4.0 09:58:49 10° SW 10:05:29 65° WNW 10:11:54 10° NNE
USA 234 3.3 10:05:47 25° SE 10:09:45 61° NE 10:16:12 10° NNW
NOSS 3-1 (A) 3.1 10:04:05 10° SSW 10:10:00 68° ESE 10:15:18 10° NE
Cosmos 1076 Rocket 3.4 10:06:18 10° S 10:10:41 70° E 10:15:01 10° NNE
YAOGAN 1 2.9 10:10:47 42° E 10:11:07 43° E 10:15:14 10° N
Envisat 3.0 10:09:02 19° SSE 10:12:36 59° E 10:17:36 10° N
ATLAS CENTAUR R/B 4.3 10:06:13 10° SSW 10:13:05 60° ESE 10:32:51 10° NE
Cosmos 2219 Rocket 4.1 10:08:52 10° SSE 10:09:44 13° SSE 10:09:44 13° SSE
Atlas Centaur 2 2.8 10:08:17 10° W 10:14:32 70° NNW 10:19:25 24° ENE
YAOGAN 6 4.3 10:17:18 22° NNE 10:17:18 22° NNE 10:18:52 10° N
Cosmos 2322 Rocket 3.5 10:11:38 10° SW 10:16:59 42° WNW 10:22:18 10° N
CZ-4 R/B 4.3 10:15:29 36° SSE 10:17:08 75° ENE 10:21:15 10° N
TIMED 4.4 10:17:30 10° SSW 10:21:56 84° ESE 10:26:18 10° NNE
NOSS 2-3 (E) 4.2 10:16:04 10° SSW 10:21:59 49° SE 10:22:25 48° ESE
FengYun 1-2 T 4.2 10:19:53 24° SSE 10:23:18 65° ENE 10:28:48 10° N
Abrixas rocket 3.1 10:20:26 10° NW 10:22:36 42° NW 10:22:36 42° NW
SL-16 R/B 4.1 10:19:52 10° SW 10:24:45 30° WNW 10:29:37 10° NNW
NOSS 2-3 (D) 4.2 10:18:58 10° SSW 10:24:55 49° SE 10:25:01 48° ESE
Sakura Rocket 3.9 10:26:18 10° W 10:30:01 40° NNW 10:31:06 34° NNE
Cosmos 2333 Rocket 4.0 10:25:22 10° S 10:26:49 17° SSE 10:26:49 17° SSE
Cosmos 2056 Rocket 4.1 10:27:43 10° NNW 10:33:01 57° WSW 10:37:04 17° S
Cosmos 2322 3.5 10:34:16 10° SSW 10:39:59 77° ESE 10:41:38 48° NE
OAO 1 Rocket 4.4 10:34:35 10° WSW 10:40:00 71° SSE 10:40:06 71° SSE
Hubble Space Telescope 2.0 10:37:38 10° NW 10:40:39 35° NNW 10:40:39 35° NNW
Cosmos 1867 4.3 10:40:12 10° SSW 10:43:37 38° S 10:43:37 38° S
ADEOS Rocket 4.3 10:50:07 28° S 10:50:07 28° S 10:53:16 10° S
Cosmos 2227 Rocket 3.7 10:42:00 10° N 10:44:07 22° NNE 10:44:07 22° NNE
CSL-04 Rocket 4.3 10:56:54 30° S 10:59:28 54° WSW 11:04:44 10° NNW
CZ-4 R/B 3.5 11:01:42 23° SW 11:02:53 26° WSW 11:06:22 10° NW
Cosmos 2219 3.4 10:59:18 10° NNW 11:04:42 69° W 11:04:42 69° W
Cosmos 2297 Rocket 3.7 11:03:27 10° N 11:05:45 25° N 11:05:45 25° N
